Precipitable_Water
1.13 1.12 1.09 1.08 1.12 1.17 1.18 1.21 1.22 1.21 1.20 1.21 1.18 1.13 1.01 0.92 0.91 0.94 0.96 1.00 1.01 1.03 1.06 1.03 0.98 0.98 0.98 1.01 1.04 0.98 0.85 0.85
1.11 1.13 1.13 1.15 1.17 1.19 1.22 1.25 1.26 1.26 1.26 1.25 1.21 1.14 1.03 0.93 0.93 0.96 1.00 1.01 1.02 1.09 1.12 1.11 1.06 0.99 0.97 1.00 1.05 1.05 0.92 0.81
1.15 1.08 1.09 1.12 1.17 1.22 1.24 1.25 1.25 1.27 1.29 1.29 1.26 1.17 1.07 0.98 0.95 0.97 1.02 1.06 1.07 1.15 1.18 1.14 1.12 1.05 1.00 0.99 1.02 1.04 0.94 0.85
1.26 1.21 1.14 1.10 1.12 1.16 1.20 1.22 1.23 1.24 1.26 1.26 1.24 1.21 1.16 1.09 1.01 0.99 1.03 1.07 1.11 1.18 1.22 1.19 1.17 1.09 1.06 1.05 1.04 1.05 0.93 0.85
1.33 1.32 1.29 1.23 1.17 1.10 1.13 1.17 1.19 1.20 1.22 1.23 1.22 1.21 1.19 1.18 1.13 1.13 1.10 1.12 1.14 1.17 1.23 1.23 1.17 1.14 1.13 1.12 1.07 1.10 1.01 0.89
1.44 1.50 1.42 1.35 1.30 1.19 1.13 1.15 1.21 1.26 1.37 1.34 1.24 1.19 1.17 1.15 1.17 1.23 1.26 1.28 1.20 1.19 1.21 1.24 1.24 1.25 1.21 1.16 1.14 1.11 1.10 0.99
1.40 1.50 1.42 1.39 1.33 1.30 1.32 1.32 1.36 1.40 1.43 1.45 1.45 1.37 1.29 1.24 1.20 1.22 1.28 1.39 1.32 1.24 1.22 1.23 1.28 1.29 1.31 1.25 1.22 1.14 1.12 1.09
1.36 1.39 1.47 1.44 1.35 1.36 1.40 1.45 1.45 1.47 1.47 1.47 1.49 1.46 1.41 1.35 1.33 1.34 1.40 1.43 1.42 1.35 1.27 1.26 1.23 1.32 1.31 1.30 1.20 1.21 1.18 1.17
1.24 1.39 1.56 1.47 1.46 1.42 1.40 1.45 1.47 1.47 1.46 1.47 1.47 1.45 1.41 1.38 1.32 1.34 1.40 1.47 1.47 1.45 1.40 1.34 1.29 1.27 1.24 1.30 1.27 1.24 1.25 1.22
1.27 1.41 1.52 1.63 1.59 1.53 1.47 1.49 1.48 1.46 1.45 1.45 1.46 1.47 1.46 1.40 1.43 1.47 1.53 1.50 1.49 1.47 1.41 1.35 1.36 1.35 1.31 1.32 1.29 1.27 1.23 1.21
1.26 1.43 1.46 1.49 1.50 1.43 1.42 1.46 1.48 1.52 1.49 1.48 1.48 1.47 1.51 1.50 1.48 1.53 1.60 1.64 1.61 1.54 1.45 1.44 1.38 1.35 1.33 1.36 1.37 1.31 1.28 1.28
1.23 1.33 1.40 1.41 1.41 1.37 1.32 1.29 1.24 1.23 1.23 1.31 1.35 1.43 1.48 1.48 1.50 1.49 1.58 1.52 1.52 1.49 1.49 1.53 1.48 1.45 1.38 1.35 1.36 1.31 1.29 1.23
1.00 1.14 1.16 1.12 1.09 1.02 0.92 0.79 0.87 0.86 0.89 0.86 0.82 0.85 0.85 0.96 1.03 1.11 1.24 1.25 1.29 1.35 1.36 1.33 1.43 1.44 1.33 1.26 1.29 1.32 1.28 1.28
0.83 0.81 0.85 0.83 0.78 0.73 0.64 0.61 0.62 0.67 0.67 0.73 0.67 0.65 0.68 0.64 0.66 0.68 0.73 0.76 0.84 0.99 1.00 0.99 1.02 1.21 1.11 1.11 0.94 1.15 1.21 1.18
0.70 0.68 0.65 0.60 0.57 0.53 0.49 0.46 0.44 0.43 0.45 0.47 0.54 0.64 0.74 0.73 0.72 0.71 0.64 0.65 0.64 0.70 0.75 0.78 0.87 1.02 1.11 1.00 0.84 0.79 1.02 1.10
0.69 0.64 0.60 0.56 0.53 0.46 0.44 0.42 0.40 0.46 0.51 0.54 0.53 0.54 0.58 0.65 0.67 0.69 0.75 0.79 0.75 0.76 0.79 0.77 0.78 0.72 0.83 0.98 1.04 1.04 0.84 0.75
0.64 0.60 0.57 0.53 0.49 0.46 0.42 0.40 0.44 0.47 0.48 0.49 0.53 0.60 0.65 0.65 0.65 0.72 0.75 0.75 0.73 0.73 0.70 0.67 0.69 0.67 0.71 0.76 0.89 0.92 1.00 1.00
0.63 0.58 0.55 0.53 0.50 0.45 0.41 0.40 0.42 0.43 0.45 0.48 0.51 0.54 0.59 0.65 0.66 0.73 0.79 0.76 0.73 0.74 0.75 0.73 0.68 0.68 0.67 0.69 0.66 0.66 0.66 0.90
0.63 0.59 0.54 0.53 0.47 0.41 0.41 0.44 0.49 0.50 0.54 0.53 0.52 0.54 0.56 0.58 0.60 0.60 0.66 0.70 0.73 0.82 0.84 0.83 0.83 0.78 0.72 0.67 0.67 0.66 0.71 0.72
0.62 0.58 0.52 0.48 0.45 0.44 0.43 0.45 0.49 0.53 0.51 0.49 0.50 0.51 0.54 0.54 0.55 0.56 0.57 0.60 0.59 0.66 0.74 0.82 0.84 0.90 0.87 0.82 0.75 0.74 0.74 0.69
Wind_Speed
6 7 8 8 7 7 7 7 7 7 6 6 6 6 6 7 7 7 7 7 8 8 8 9 9 9 9 10 9 8 8 9
7 8 8 8 8 8 7 7 7 7 7 7 8 8 8 8 9 9 9 9 10 10 10 10 11 11 12 12 12 11 11 12
7 9 9 9 9 9 8 8 7 8 8 8 9 10 10 10 11 11 12 12 12 12 12 12 12 13 13 14 14 13 13 13
9 10 11 11 11 11 11 10 10 10 11 11 11 12 12 13 14 14 14 14 14 14 14 14 15 15 15 15 16 15 15 15
11 11 12 12 13 13 13 13 13 13 14 14 14 14 14 15 15 16 17 17 17 17 17 17 17 17 18 19 19 18 18 18
12 11 11 11 13 15 15 15 15 15 15 16 16 16 17 17 17 17 18 18 18 19 20 20 21 21 21 21 21 21 21 21
14 13 13 12 12 14 16 16 16 16 16 17 17 17 17 18 19 19 20 20 21 21 22 23 23 23 23 23 23 23 23 24
16 16 14 13 13 14 14 16 18 18 18 18 19 20 20 20 20 21 22 22 24 24 25 25 26 26 26 26 27 27 26 26
15 15 14 13 12 13 15 15 14 16 17 19 21 22 23 23 24 24 25 25 26 27 28 28 29 29 30 29 28 29 29 29
13 14 14 13 13 13 14 16 17 18 19 20 22 23 25 26 27 27 28 29 30 30 31 31 32 32 33 33 33 32 33 32
11 12 13 13 14 15 16 17 19 20 22 23 24 25 27 29 29 30 32 33 33 34 34 35 35 36 37 37 37 37 36 36
9 11 12 13 14 14 15 15 16 18 20 22 24 25 28 30 32 34 35 36 36 36 38 38 40 40 40 40 41 41 40 41
10 11 12 12 13 14 15 16 18 19 21 23 25 26 28 29 31 32 34 35 37 39 41 42 42 42 43 44 45 45 46 45
11 11 11 13 14 15 17 18 20 22 24 26 28 30 32 33 34 35 36 38 40 41 43 44 44 44 43 44 45 45 48 51
12 12 13 13 15 17 19 21 23 25 27 29 31 33 35 36 38 39 40 41 42 43 44 45 47 46 47 46 44 44 43 45
12 13 14 15 17 19 22 25 27 30 32 34 36 37 39 41 42 43 44 45 46 46 46 46 47 47 48 48 50 50 49 49
14 14 16 18 20 23 25 28 31 33 35 38 40 42 43 44 45 45 45 46 46 47 47 47 47 48 48 49 50 51 52 50
16 17 19 21 24 26 29 32 35 37 40 42 43 44 44 44 44 45 45 46 47 47 46 46 46 46 46 47 48 49 48 46
18 20 22 24 28 31 33 36 37 39 42 43 44 44 44 45 46 47 48 49 49 48 47 47 46 46 45 45 45 46 47 49
21 22 25 28 31 33 36 38 40 42 43 44 44 46 46 47 47 47 48 50 49 49 49 49 50 48 48 48 47 47 45 45
Wind_Direction
201 201 203 208 214 220 222 226 226 230 237 244 257 263 274 274 274 279 280 286 289 288 282 281 282 282 279 277 275 274 268 258
216 215 217 221 223 223 223 228 231 235 245 253 262 267 272 274 275 276 278 284 286 284 285 279 279 282 278 275 272 271 266 263
231 229 231 232 229 226 227 232 241 248 255 262 269 273 275 276 274 274 276 278 281 283 283 282 279 281 279 275 271 268 266 265
242 242 240 240 237 235 238 244 251 257 262 268 273 275 277 277 276 275 276 276 277 279 281 281 280 281 280 274 273 267 265 263
245 245 245 246 247 243 247 251 257 263 267 269 272 276 277 277 278 277 276 275 275 275 278 279 279 279 279 276 272 268 265 263
241 246 250 254 255 248 251 255 261 265 270 269 272 276 276 277 278 278 277 276 276 275 276 277 278 278 278 278 273 267 264 264
243 247 255 261 261 256 252 256 262 267 270 272 273 277 280 278 278 278 277 276 275 277 277 277 277 277 277 276 274 270 266 264
245 249 256 262 264 259 258 263 264 269 272 271 272 276 280 281 281 280 278 278 277 277 278 278 276 276 276 275 272 270 268 264
243 244 250 259 265 266 263 267 271 272 275 277 276 276 280 281 282 282 280 280 281 279 278 277 276 276 276 273 270 269 268 266
242 241 246 253 264 273 273 272 273 276 280 283 281 278 279 281 282 281 281 281 281 280 279 277 276 274 274 273 271 268 267 266
254 247 249 256 267 276 277 278 280 283 286 286 285 285 284 282 282 282 282 282 280 279 279 277 277 274 272 271 268 268 267 265
260 253 256 263 272 277 281 284 287 289 292 292 293 291 290 288 286 285 284 284 283 282 280 280 279 276 274 270 267 266 265 264
260 258 266 271 276 279 283 288 289 293 295 296 296 295 294 293 291 289 287 285 284 283 283 280 279 278 276 273 270 267 264 263
260 261 267 274 279 284 288 290 292 294 296 297 298 296 294 293 291 289 288 287 285 284 283 281 278 276 275 275 275 270 265 264
261 264 270 276 283 287 290 293 295 296 297 298 297 297 295 293 291 289 288 288 286 284 282 280 280 278 275 273 273 273 272 266
262 266 271 279 286 291 294 295 295 296 297 297 297 296 294 292 291 289 288 287 286 285 283 282 281 279 277 272 270 270 271 270
262 269 277 283 289 293 295 296 296 296 297 298 297 296 295 293 292 290 288 286 285 284 283 281 279 277 275 274 272 270 269 269
267 272 279 286 290 294 296 297 297 297 299 299 298 296 295 294 294 292 291 289 288 287 284 282 280 278 275 273 271 269 267 268
271 277 281 288 294 296 298 299 298 298 300 300 300 299 298 297 295 293 292 290 289 287 284 282 281 279 276 274 272 270 268 266
274 280 284 291 295 296 298 299 300 301 301 301 301 301 300 299 297 295 295 293 290 287 284 282 279 280 278 274 272 271 269 267